User: anonymous   Login
Location: Plymouth
(43.7570°N, 71.6890°W)
Time: 05:13:38
(UTC-05:00)
Language:

COSMOS 2406 - Orbit

View from above orbital plane
View from above orbital plane
View from above satellite
View from above satellite

Ground track
Ground track

The orbit data is extracted from the following two-line orbital elements,

1 28352U 04021A   15023.53061760  .00000223  00000-0  14927-3 0  4938
2 28352 071.0022 152.6689 0015956 335.8369 075.4696 14.11374438547294
Epoch (UTC): 23 January 2015 12:44:05
Eccentricity: 0.0015956
inclination: 71.0022°
perigee height: 843 km
apogee height: 866 km
right ascension of ascending node: 152.6689°
argument of perigee: 335.8369°
revolutions per day: 14.11374438
mean anomaly at epoch: 75.4696°
orbit number at epoch: 54729

The dashed part of the orbit path shows where the satellite is in the earth's shadow,  

DLR